EW9167 Weather Reports


time (UTC)temp
C
wind
direction
speed
KPH
gust
KPH
rain 1hr
cm
rain 24hr
cm
rain mn
cm
humidity
%
barometer
mb
20260505022638 16 165 3.2 6.4 0.00 0.00 0.00 56 1012.9
20260505021159 16 111 3.2 4.8 0.00 0.00 0.00 55 1012.9
20260505020153 16 125 1.6 4.8 0.00 0.00 0.00 55 1012.9
20260505015152 16 130 3.2 4.8 0.00 0.00 0.00 56 1012.9
20260505014150 16 142 1.6 3.2 0.00 0.00 0.00 56 1012.6
20260505013151 16 124 3.2 3.2 0.00 0.00 0.00 56 1012.9
20260505012149 16 121 3.2 3.2 0.00 0.00 0.00 56 1012.9
20260505011146 17 125 3.2 4.8 0.00 0.00 0.00 55 1012.6
20260505010146 17 150 1.6 4.8 0.00 0.00 0.00 54 1012.6
20260505005147 17 139 3.2 4.8 0.00 0.00 0.00 54 1012.6
20260505005104 17 146 1.6 4.8 0.00 0.00 0.00 52 1012.3
20260505003136 18 140 3.2 4.8 0.00 0.00 0.00 51 1012.3
20260505002611 18 141 3.2 4.8 0.00 0.00 0.00 50 1012.3
20260505001132 18 142 0.0 4.8 0.00 0.00 0.00 49 1012.3
20260505000134 18 154 1.6 4.8 0.00 0.00 0.00 48 1011.9
20260504235135 19 148 1.6 6.4 0.00 0.00 0.00 47 1011.9
20260504234135 20 127 3.2 4.8 0.00 0.00 0.00 45 1011.9
20260504233133 20 256 1.6 4.8 0.00 0.00 0.00 44 1011.9
20260504232624 21 139 0.0 3.2 0.00 0.00 0.00 43 1011.9
20260504231133 21 132 3.2 3.2 0.00 0.00 0.00 41 1011.9
20260504230135 22 158 0.0 6.4 0.00 0.00 0.00 39 1011.9
20260504225130 22 217 0.0 8.0 0.00 0.00 0.00 39 1011.6
20260504224130 22 210 4.8 12.9 0.00 0.00 0.00 38 1011.9
20260504224100 23 162 3.2 9.7 0.00 0.00 0.00 38 1011.9
20260504222131 23 199 8.0 16.1 0.00 0.00 0.00 36 1011.9
20260504221130 24 169 4.8 14.5 0.00 0.00 0.00 33 1011.9
20260504220133 25 250 8.0 12.9 0.00 0.00 0.00 33 1011.9
20260504215133 26 288 3.2 17.7 0.00 0.00 0.00 32 1011.9
20260504214135 26 220 1.6 9.7 0.00 0.00 0.00 31 1012.3
20260504213132 26 237 0.0 12.9 0.00 0.00 0.00 32 1012.3
20260504212132 26 186 3.2 16.1 0.00 0.00 0.00 32 1012.3
20260504211135 26 224 4.8 12.9 0.00 0.00 0.00 30 1012.3
20260504210131 27 232 6.4 11.3 0.00 0.00 0.00 32 1012.3
20260504205134 26 166 3.2 11.3 0.00 0.00 0.00 31 1012.3
20260504204135 26 181 0.0 16.1 0.00 0.00 0.00 31 1012.3
20260504203132 26 247 0.0 14.5 0.00 0.00 0.00 33 1012.3
20260504202134 26 213 12.9 14.5 0.00 0.00 0.00 31 1012.3
20260504201133 26 217 8.0 11.3 0.00 0.00 0.00 34 1012.6
20260504200135 26 157 1.6 17.7 0.00 0.00 0.00 30 1012.6
20260504195139 26 231 9.7 24.1 0.00 0.00 0.00 30 1012.6
20260504194149 26 101 0.0 11.3 0.00 0.00 0.00 30 1012.6
20260504193133 26 249 3.2 14.5 0.00 0.00 0.00 32 1012.9
20260504192138 26 197 4.8 12.9 0.00 0.00 0.00 31 1012.9
20260504191135 25 185 0.0 16.1 0.00 0.00 0.00 33 1013.3
20260504190139 25 110 1.6 11.3 0.00 0.00 0.00 35 1012.9
20260504190054 25 225 9.7 17.7 0.00 0.00 0.00 33 1013.3
20260504184137 25 165 3.2 14.5 0.00 0.00 0.00 32 1013.3
20260504183136 25 180 3.2 11.3 0.00 0.00 0.00 37 1013.6
20260504182133 25 250 6.4 14.5 0.00 0.00 0.00 33 1013.6
20260504181131 24 273 0.0 12.9 0.00 0.00 0.00 36 1013.6
20260504180131 24 208 1.6 14.5 0.00 0.00 0.00 34 1014.0
20260504175131 24 200 3.2 9.7 0.00 0.00 0.00 34 1014.3
20260504174134 23 159 1.6 14.5 0.00 0.00 0.00 33 1014.3
20260504173133 23 218 6.4 9.7 0.00 0.00 0.00 36 1014.6
20260504172135 22 201 3.2 12.9 0.00 0.00 0.00 35 1014.3
20260504171135 22 11 3.2 9.7 0.00 0.00 0.00 36 1014.6
20260504170134 22 201 11.3 12.9 0.00 0.00 0.00 34 1015.0
20260504160134 21 226 11.3 17.7 0.00 0.00 0.00 35 1015.3
20260504151135 20 224 6.4 9.7 0.00 0.00 0.00 47 1016.0
20260504150134 20 227 4.8 11.3 0.00 0.00 0.00 47 1016.0
20260504140131 17 276 0.0 12.9 0.00 0.00 0.00 51 1016.3
20260504130133 15 214 4.8 14.5 0.00 0.00 0.00 60 1016.7
20260504120132 12 169 3.2 8.0 0.00 0.00 0.00 74 1016.7
20260504110133 9 138 4.8 4.8 0.00 0.00 0.00 80 1017.3
20260504100134 8 149 3.2 4.8 0.00 0.00 0.00 77 1017.3
20260504090125 8 140 3.2 8.0 0.00 0.00 0.00 74 1017.3
20260504081119 7 125 3.2 4.8 0.00 0.00 0.00 73 1017.3
20260504080117 7 134 3.2 4.8 0.00 0.00 0.00 72 1017.3
20260504070105 7 129 3.2 6.4 0.00 0.00 0.00 70 1017.0
20260504060105 7 122 1.6 4.8 0.00 0.00 0.00 68 1017.0
20260504045103 8 129 3.2 4.8 0.00 0.00 0.00 64 1017.0
20260504044104 8 155 3.2 6.4 0.00 0.00 0.00 63 1016.7
20260504043104 8 195 3.2 6.4 0.00 0.00 0.00 64 1016.7
20260504042104 8 123 3.2 4.8 0.00 0.00 0.00 63 1016.7
20260504041546 8 137 3.2 6.4 0.00 0.00 0.00 64 1017.0
20260504040104 8 137 0.0 3.2 0.00 0.00 0.00 63 1016.7
20260504035107 8 131 3.2 4.8 0.00 0.00 0.00 62 1016.7
20260504034104 8 127 3.2 4.8 0.00 0.00 0.00 61 1016.3
20260504033104 8 127 3.2 3.2 0.00 0.00 0.00 60 1016.3
20260504032103 8 136 3.2 3.2 0.00 0.00 0.00 60 1016.3
20260504031104 9 128 3.2 4.8 0.00 0.00 0.00 57 1016.3
20260504030549 9 126 3.2 3.2 0.00 0.00 0.00 56 1016.3
20260504025555 10 127 3.2 4.8 0.00 0.00 0.00 55 1016.7
20260504024458 10 134 1.6 4.8 0.00 0.00 0.00 53 1016.3
20260504024244 10 124 3.2 4.8 0.00 0.00 0.00 55 1016.3